RH
47 49 53 56 55 54 58 61 62 68 68 73 74 76 74 81 89 98 90 88 84 89 84 84 71 64 65 53 47 49 46 58 69 69 60 64 56 44
51 49 40 43 50 52 56 59 63 66 66 68 71 73 83 84 85 85 83 91 94 92 89 80 78 73 60 53 47 57 51 56 62 68 70 63 48 44
37 38 40 42 43 45 50 55 63 69 72 77 82 86 86 90 90 88 90 98 95 94 88 82 77 64 64 57 52 42 50 56 63 61 57 47 44 43
35 36 37 39 40 42 44 45 48 55 58 66 73 76 81 86 88 89 92 93 95 95 85 90 82 64 66 64 51 37 41 49 49 47 47 45 43 34
34 34 34 36 38 39 40 42 43 47 50 55 56 63 77 83 88 89 92 92 87 83 87 86 82 70 69 63 46 39 46 43 47 44 43 35 32 32
34 35 35 37 38 40 41 42 43 47 50 55 57 59 64 69 82 86 90 90 91 92 93 88 85 75 72 66 50 46 44 42 45 42 32 30 30 27
36 37 38 39 40 41 42 42 43 48 51 54 57 59 65 69 78 82 83 86 89 91 92 83 82 82 78 64 51 48 47 44 45 38 32 26 22 19
40 40 40 40 40 40 41 42 46 50 51 56 59 61 65 68 71 79 86 89 84 91 88 80 79 78 69 56 47 47 41 43 37 35 24 21 21 22
41 38 39 42 43 43 43 45 48 52 56 59 63 63 64 69 72 80 82 89 82 79 80 77 78 72 63 52 47 41 35 29 28 28 24 25 27 27
40 40 43 44 46 45 47 50 53 57 60 64 67 68 67 69 71 79 84 88 84 77 76 75 67 61 51 44 34 35 40 32 36 31 30 33 32 31
45 43 44 47 48 48 51 53 56 60 66 68 70 72 71 71 73 78 80 82 80 76 74 67 56 50 43 39 42 38 40 40 38 36 38 39 37 36
49 48 50 51 54 54 55 58 61 64 70 72 74 76 76 76 78 78 88 82 83 77 62 59 50 47 49 47 41 42 40 44 41 41 43 43 41 41
55 55 55 56 56 57 58 61 63 67 73 76 78 79 78 78 79 81 82 88 91 69 52 48 50 49 48 46 49 46 48 47 43 45 47 46 46 47
58 58 58 59 59 59 61 65 67 71 74 76 79 78 75 70 66 70 85 85 66 54 53 46 42 48 43 48 53 48 50 48 48 52 52 52 52 54
62 61 61 63 62 63 64 67 70 70 71 73 74 75 75 72 65 60 62 55 51 61 51 46 45 48 56 55 50 52 55 54 57 57 58 61 61 60
64 63 62 65 67 66 64 67 72 73 69 69 70 72 70 66 62 54 56 49 43 50 58 54 48 53 60 58 60 61 61 64 67 68 68 67 66 62
62 63 65 69 72 72 69 66 74 72 71 71 68 67 64 60 58 52 50 46 52 55 61 60 58 60 65 63 65 67 70 72 67 68 71 70 67 64
66 68 69 72 74 75 73 70 72 70 70 67 64 63 61 56 52 49 50 56 61 60 59 65 63 69 66 70 74 72 75 73 66 65 70 71 67 67
66 67 70 72 73 75 74 78 78 71 68 64 66 67 60 56 52 46 53 62 62 59 61 63 67 68 75 75 72 78 77 70 63 60 61 70 72 71
66 65 67 68 68 69 69 72 74 71 65 62 61 60 57 52 50 54 56 53 60 63 66 71 69 75 78 72 76 77 70 66 63 59 61 70 75 75
69 65 61 60 62 65 67 65 66 65 68 70 67 62 63 62 61 62 62 54 59 60 65 69 69 82 80 80 77 72 73 79 72 65 64 66 73 79
72 67 66 65 65 67 67 65 62 55 57 62 64 66 66 67 65 61 60 60 68 69 73 73 75 87 76 78 80 82 82 79 67 66 69 70 74 80
76 71 70 70 71 70 69 70 70 64 55 56 61 62 62 62 62 60 58 60 70 63 63 70 70 72 74 74 75 84 83 75 75 76 73 68 73 83